Weather History for Toledo, OH

Change the Weather History Date:

Thursday, March 28, 2013

  Actual Average Record
Temperature  
Mean Temperature 40 °F 42 °F  
Max Temperature 52 °F 52 °F 81 °F (1910)
Min Temperature 27 °F 32 °F 11 °F (1934)
Degree Days  
Heating Degree Days 25 23  
Month to date heating degree days 908 784  
Since 1 July heating degree days 5364 5360  
Cooling Degree Days 0 0  
Month to date cooling degree days 0 0  
Year to date cooling degree days 0 0  
Moisture  
Dew Point 22 °F    
Average Humidity 53    
Maximum Humidity 75    
Minimum Humidity 30    
Precipitation  
Precipitation 0.00 in 0.09 in 2.60 in (1985)
Month to date precipitation 0.73 2.20  
Year to date precipitation 7.17 6.32  
Snow  
Snow 0.00 in 0.10 in - ()
Month to date snowfall 1.4 5.4  
Since 1 July snowfall 22.1 35.9  
Snow Depth 0.00 in    
Sea Level Pressure  
Sea Level Pressure 30.26 in    
Wind  
Wind Speed 9 mph (WNW)    
Max Wind Speed 17 mph    
Max Gust Speed 22 mph    
Visibility 10 miles    
Events      
T = Trace of Precipitation, MM = Missing Value Source: NWS Daily Summary

Daily Weather History Graph

Daily Weather History Graph

Search for Another Location

Airport:

Trip Planner

Search our weather history database for the weather conditions in past years. The results will help you decide how hot, cold, wet, or windy it might be!

Date:

Astronomy

Mar. 28, 2013 Rise Set
Actual Time 7:24 AM EDT 7:56 PM EDT
Civil Twilight 6:56 AM EDT 8:24 PM EDT
Nautical Twilight 6:23 AM EDT 8:57 PM EDT
Astronomical Twilight 5:50 AM EDT 9:31 PM EDT
Moon 9:49 PM EDT (3/28) 7:50 AM EDT (3/28)
Length of Visible Light 13h 27m
Length of Day
12h 31m
Full, 98% of the Moon is Illuminated
Mar 28
Full
Apr 3
Last Quarter
Apr 10
New
Apr 18
First Quarter
Apr 25
Full

Hourly Weather History & Observations

Time (EDT) Temp. Windchill Dew Point Humidity Pressure Visibility Wind Dir Wind Speed Gust Speed Precip Events Conditions
12:52 AM 32.0 °F 24.8 °F 21.0 °F 64% 30.25 in 10.0 mi West 8.1 mph - N/A   Clear
1:52 AM 30.9 °F 23.5 °F 19.9 °F 64% 30.25 in 10.0 mi West 8.1 mph - N/A   Clear
2:52 AM 28.9 °F 21.1 °F 19.9 °F 69% 30.25 in 10.0 mi West 8.1 mph - N/A   Clear
3:52 AM 28.0 °F 20.8 °F 19.9 °F 72% 30.25 in 10.0 mi West 6.9 mph - N/A   Clear
4:52 AM 27.0 °F 20.5 °F 19.9 °F 75% 30.25 in 10.0 mi West 5.8 mph - N/A   Clear
5:52 AM 28.0 °F 19.3 °F 19.9 °F 72% 30.25 in 10.0 mi West 9.2 mph - N/A   Clear
6:52 AM 28.0 °F 20.0 °F 19.9 °F 72% 30.26 in 10.0 mi West 8.1 mph - N/A   Clear
7:52 AM 28.9 °F 21.1 °F 21.0 °F 72% 30.27 in 10.0 mi West 8.1 mph - N/A   Clear
8:52 AM 34.0 °F 27.2 °F 21.9 °F 61% 30.29 in 10.0 mi WNW 8.1 mph - N/A   Clear
9:52 AM 37.0 °F 31.0 °F 24.1 °F 59% 30.29 in 10.0 mi WNW 8.1 mph - N/A   Clear
10:52 AM 41.0 °F 34.3 °F 23.0 °F 49% 30.29 in 10.0 mi NW 11.5 mph - N/A   Clear
11:52 AM 45.0 °F 38.9 °F 21.9 °F 40% 30.29 in 10.0 mi NNW 12.7 mph 20.7 mph N/A   Mostly Cloudy
12:52 PM 46.9 °F - 21.0 °F 36% 30.28 in 10.0 mi NW 11.5 mph 21.9 mph N/A   Clear
1:52 PM 50.0 °F - 21.9 °F 33% 30.27 in 10.0 mi NNW 11.5 mph 19.6 mph N/A   Partly Cloudy
2:52 PM 50.0 °F - 21.9 °F 33% 30.26 in 10.0 mi WNW 6.9 mph - N/A   Scattered Clouds
3:52 PM 51.1 °F - 21.9 °F 32% 30.25 in 10.0 mi WNW 11.5 mph - N/A   Overcast
4:52 PM 50.0 °F - 21.9 °F 33% 30.24 in 10.0 mi NW 9.2 mph - N/A   Overcast
5:52 PM 50.0 °F - 21.9 °F 33% 30.24 in 10.0 mi West 10.4 mph - N/A   Overcast
6:52 PM 48.9 °F - 21.9 °F 35% 30.25 in 10.0 mi WNW 8.1 mph - N/A   Overcast
7:52 PM 46.9 °F - 23.0 °F 39% 30.25 in 10.0 mi West 6.9 mph - N/A   Overcast
8:52 PM 46.0 °F 43.1 °F 24.1 °F 42% 30.26 in 10.0 mi West 5.8 mph - N/A   Overcast
9:52 PM 44.1 °F 40.8 °F 25.0 °F 47% 30.27 in 10.0 mi West 5.8 mph - N/A   Overcast
10:52 PM 42.1 °F 37.7 °F 24.1 °F 49% 30.28 in 10.0 mi West 6.9 mph - N/A   Mostly Cloudy
11:52 PM 37.0 °F 30.4 °F 23.0 °F 57% 30.29 in 10.0 mi West 9.2 mph - N/A   Clear